Location: Sunny Point
(33.0946°N, 85.0574°W)
Time: 09:46:21
(UTC+00:00)

ISS - Pass Details

Date: 01 June 2024
Orbit: 411 x 425 km, 51.6° (Epoch: 20 June)

Event Time Altitude Azimuth Distance (km) Brightness Sun altitude
Rises 02:16:16 0° 295° (WNW) 2,384 1.5 -16.8°
Reaches altitude 10° 02:18:59 10° 272° (W) 1,512 -0.2 -17.2°
Maximum altitude 02:21:06 16° 233° (SW) 1,211 -1.3 -17.5°
Enters shadow 02:22:20 13° 208° (SSW) 1,319 -1.4 -17.7°
